Location: Amsterdam
(30.7274°N, 84.4357°W)
Time: 12:05:20
(UTC+00:00)

Courier 1B Rocket - Pass Details

Date: 09 February 2026
Orbit: 920 x 1201 km, 28.2° (Epoch: 17 March)

Event Time Altitude Azimuth Distance (km) Brightness Sun altitude
Rises 05:28:48 0° 258° (WSW) 3,800 - -73.1°
Reaches altitude 10° 05:31:26 10° 257° (WSW) 2,888 - -73.3°
Maximum altitude 05:38:33 72° 174° (S) 1,175 - -73.6°
Drops below altitude 10° 05:46:09 10° 92° (E) 3,078 - -73.9°
Sets 05:49:03 0° 90° (E) 4,065 - -73.9°
